When you browse on this site, cookies collect data to enhance your experience and personalize the content and advertising you see.
Visit our Privacy Policy to learn more. By continuing to use the site, you agree to this use of cookies and data.
  • In Austria
  • List of Countries
  • For 7 days
  • Water Temperature
  • Weather Map
  • News
  • Weather Widgets
  • user-avatar
    Login

    Hourly Weather Zastavche

    Today, 14 October, Monday

    Time Temperature Precipitation Wind Pressure Humidity
    00:00 +13°C° 0 mm 1 mps 742 mmHg 63%
    01:00 +13°C° 0 mm 1 mps 742 mmHg 65%
    02:00 +12°C° 0 mm 1 mps 741 mmHg 67%
    03:00 +12°C° 0 mm 1 mps 741 mmHg 68%
    04:00 +12°C° 0 mm 1 mps 741 mmHg 68%
    05:00 +11°C° 0 mm 1 mps 741 mmHg 68%
    06:00 +12°C° 0 mm 1 mps 741 mmHg 66%
    07:00 +12°C° 0 mm 1 mps 741 mmHg 64%
    08:00 +14°C° 0 mm 1 mps 742 mmHg 60%
    09:00 +15°C° 0 mm 1 mps 741 mmHg 55%
    10:00 +18°C° 0 mm 1 mps 741 mmHg 50%
    11:00 +19°C° 0 mm 2 mps 741 mmHg 45%
    12:00 +20°C° 0 mm 2 mps 741 mmHg 43%
    13:00 +22°C° 0 mm 1 mps 741 mmHg 41%
    14:00 +23°C° 0 mm 1 mps 741 mmHg 41%
    15:00 +22°C° 0 mm 1 mps 741 mmHg 46%
    16:00 +21°C° 0 mm 1 mps 740 mmHg 50%
    17:00 +20°C° 0 mm 1 mps 740 mmHg 55%
    18:00 +19°C° 0 mm 1 mps 740 mmHg 57%
    19:00 +18°C° 0 mm 1 mps 740 mmHg 59%
    20:00 +16°C° 0 mm 1 mps 740 mmHg 61%
    21:00 +15°C° 0 mm 1 mps 740 mmHg 63%
    22:00 +15°C° 0 mm 1 mps 740 mmHg 65%
    23:00 +14°C° 0 mm 1 mps 740 mmHg 66%

    Tomorrow, 15 October, Tuesday

    Time Temperature Precipitation Wind Pressure Humidity
    00:00 +14°C° 0 mm 1 mps 740 mmHg 67%
    01:00 +14°C° 0 mm 1 mps 740 mmHg 67%
    02:00 +14°C° 0 mm 1 mps 740 mmHg 67%
    03:00 +13°C° 0 mm 1 mps 739 mmHg 67%
    04:00 +13°C° 0 mm 1 mps 739 mmHg 67%
    05:00 +13°C° 0 mm 1 mps 739 mmHg 68%
    06:00 +13°C° 0 mm 2 mps 739 mmHg 67%
    07:00 +13°C° 0 mm 2 mps 739 mmHg 67%
    08:00 +14°C° 0 mm 2 mps 739 mmHg 67%
    09:00 +16°C° 0 mm 3 mps 739 mmHg 61%
    10:00 +18°C° 0 mm 3 mps 739 mmHg 55%
    11:00 +20°C° 0 mm 4 mps 739 mmHg 49%
    12:00 +21°C° 0 mm 4 mps 738 mmHg 47%
    13:00 +22°C° 0 mm 4 mps 738 mmHg 44%
    14:00 +23°C° 0 mm 5 mps 738 mmHg 42%
    15:00 +22°C° 0 mm 4 mps 738 mmHg 46%
    16:00 +20°C° 0 mm 4 mps 737 mmHg 51%
    17:00 +19°C° 0 mm 4 mps 737 mmHg 55%
    18:00 +18°C° 0 mm 4 mps 737 mmHg 58%
    19:00 +17°C° 0 mm 4 mps 737 mmHg 61%
    20:00 +15°C° 0 mm 4 mps 737 mmHg 64%
    21:00 +14°C° 0 mm 4 mps 737 mmHg 68%
    22:00 +14°C° 0 mm 3 mps 737 mmHg 72%
    23:00 +13°C° 0 mm 3 mps 737 mmHg 76%

    Day after tomorrow, 16 October, Wednesday

    Time Temperature Precipitation Wind Pressure Humidity
    00:00 +13°C° 0 mm 3 mps 737 mmHg 78%
    01:00 +13°C° 0 mm 2 mps 737 mmHg 80%
    02:00 +13°C° 0 mm 2 mps 737 mmHg 82%
    03:00 +12°C° 0 mm 2 mps 737 mmHg 83%
    04:00 +12°C° 0 mm 2 mps 737 mmHg 84%
    05:00 +10°C° 0 mm 2 mps 737 mmHg 85%
    06:00 +12°C° 0 mm 2 mps 737 mmHg 83%
    07:00 +12°C° 0 mm 2 mps 737 mmHg 80%
    08:00 +13°C° 0 mm 2 mps 737 mmHg 78%
    09:00 +15°C° 0 mm 2 mps 738 mmHg 69%
    10:00 +17°C° 0 mm 2 mps 738 mmHg 59%
    11:00 +20°C° 0 mm 2 mps 738 mmHg 50%
    12:00 +21°C° 0 mm 2 mps 738 mmHg 47%
    13:00 +23°C° 0 mm 1 mps 738 mmHg 43%
    14:00 +25°C° 0 mm 1 mps 738 mmHg 40%
    15:00 +23°C° 0 mm 1 mps 738 mmHg 44%
    16:00 +22°C° 0 mm 1 mps 738 mmHg 49%
    17:00 +20°C° 0 mm 2 mps 738 mmHg 53%
    18:00 +18°C° 0 mm 2 mps 738 mmHg 57%
    19:00 +17°C° 0 mm 2 mps 738 mmHg 60%
    20:00 +16°C° 0 mm 2 mps 738 mmHg 64%
    21:00 +15°C° 0 mm 2 mps 738 mmHg 65%
    22:00 +15°C° 0 mm 1 mps 738 mmHg 67%
    23:00 +14°C° 0 mm 1 mps 738 mmHg 68%

    17 October, Thursday

    Time Temperature Precipitation Wind Pressure Humidity
    00:00 +14°C° 0 mm 1 mps 739 mmHg 69%
    01:00 +13°C° 0 mm 1 mps 739 mmHg 71%
    02:00 +13°C° 0 mm 1 mps 739 mmHg 72%
    03:00 +12°C° 0 mm 0 mps 739 mmHg 73%
    04:00 +12°C° 0 mm 0 mps 739 mmHg 74%
    05:00 +11°C° 0 mm 0 mps 739 mmHg 75%
    06:00 +13°C° 0 mm 1 mps 739 mmHg 75%
    07:00 +13°C° 0 mm 1 mps 739 mmHg 76%
    08:00 +13°C° 0 mm 1 mps 739 mmHg 76%
    09:00 +15°C° 0 mm 1 mps 739 mmHg 71%
    10:00 +18°C° 0 mm 1 mps 739 mmHg 66%
    11:00 +20°C° 0 mm 1 mps 739 mmHg 60%
    12:00 +21°C° 0 mm 1 mps 739 mmHg 57%
    13:00 +22°C° 0 mm 1 mps 739 mmHg 54%
    14:00 +22°C° 0 mm 1 mps 739 mmHg 50%
    15:00 +21°C° 0 mm 1 mps 739 mmHg 54%
    16:00 +20°C° 0 mm 1 mps 739 mmHg 59%
    17:00 +19°C° 0 mm 1 mps 739 mmHg 63%
    18:00 +18°C° 0 mm 1 mps 739 mmHg 67%
    19:00 +16°C° 0 mm 1 mps 739 mmHg 71%
    20:00 +15°C° 0 mm 1 mps 740 mmHg 75%
    21:00 +14°C° 0 mm 1 mps 740 mmHg 76%
    22:00 +14°C° 0 mm 1 mps 740 mmHg 78%
    23:00 +13°C° 0 mm 1 mps 740 mmHg 79%

    18 October, Friday

    Time Temperature Precipitation Wind Pressure Humidity
    00:00 +13°C° 0 mm 1 mps 740 mmHg 80%
    01:00 +12°C° 0 mm 0 mps 740 mmHg 81%
    02:00 +11°C° 0 mm 0 mps 740 mmHg 82%
    03:00 +11°C° 0 mm 0 mps 740 mmHg 83%
    04:00 +12°C° 0 mm 1 mps 740 mmHg 84%
    05:00 +12°C° 0 mm 1 mps 740 mmHg 84%
    06:00 +12°C° 0 mm 1 mps 740 mmHg 83%
    07:00 +12°C° 0 mm 1 mps 740 mmHg 82%
    08:00 +13°C° 0 mm 1 mps 741 mmHg 81%
    09:00 +15°C° 0 mm 2 mps 741 mmHg 74%
    10:00 +17°C° 0 mm 2 mps 741 mmHg 68%
    11:00 +19°C° 0 mm 3 mps 741 mmHg 61%
    12:00 +19°C° 0 mm 3 mps 741 mmHg 57%
    13:00 +20°C° 0 mm 3 mps 740 mmHg 54%
    14:00 +21°C° 0 mm 3 mps 740 mmHg 50%
    15:00 +20°C° 0 mm 3 mps 740 mmHg 54%
    16:00 +19°C° 0 mm 2 mps 740 mmHg 58%
    17:00 +18°C° 0 mm 2 mps 739 mmHg 62%
    18:00 +17°C° 0 mm 2 mps 739 mmHg 64%
    19:00 +16°C° 0 mm 2 mps 740 mmHg 67%
    20:00 +15°C° 0 mm 2 mps 740 mmHg 70%
    21:00 +14°C° 0 mm 2 mps 740 mmHg 70%
    22:00 +14°C° 0 mm 2 mps 740 mmHg 71%
    23:00 +14°C° 0 mm 2 mps 740 mmHg 72%

    19 October, Saturday

    Time Temperature Precipitation Wind Pressure Humidity
    00:00 +13°C° 0 mm 2 mps 740 mmHg 73%
    01:00 +13°C° 0 mm 2 mps 740 mmHg 74%
    02:00 +12°C° 0 mm 2 mps 740 mmHg 75%
    03:00 +12°C° 0 mm 2 mps 740 mmHg 77%
    04:00 +12°C° 0 mm 2 mps 740 mmHg 78%
    05:00 +10°C° 0 mm 2 mps 740 mmHg 79%
    06:00 +12°C° 0 mm 2 mps 740 mmHg 78%
    07:00 +12°C° 0 mm 2 mps 740 mmHg 77%
    08:00 +12°C° 0 mm 2 mps 740 mmHg 76%
    09:00 +13°C° 0 mm 3 mps 740 mmHg 69%
    10:00 +16°C° 0 mm 3 mps 741 mmHg 62%
    11:00 +18°C° 0 mm 3 mps 741 mmHg 55%
    12:00 +19°C° 0 mm 4 mps 740 mmHg 52%
    13:00 +20°C° 0 mm 4 mps 740 mmHg 49%
    14:00 +21°C° 0 mm 4 mps 740 mmHg 46%
    15:00 +20°C° 0 mm 4 mps 740 mmHg 48%
    16:00 +19°C° 0 mm 3 mps 740 mmHg 51%
    17:00 +18°C° 0 mm 3 mps 739 mmHg 54%
    18:00 +17°C° 0 mm 3 mps 740 mmHg 55%
    19:00 +16°C° 0 mm 3 mps 740 mmHg 55%
    20:00 +14°C° 0 mm 4 mps 740 mmHg 56%
    21:00 +14°C° 0 mm 4 mps 740 mmHg 58%
    22:00 +14°C° 0 mm 4 mps 740 mmHg 60%
    23:00 +13°C° 0 mm 4 mps 740 mmHg 62%
    Show more